Regional Weather Roundup
Issued by NWS

Home | Current Version | Previous Version | Graphics & Text | Print | Product List | Glossary On
Versions: 1 2 3 4 5 6 7 8 9 10 11 12 13 14 15 16 17 18 19 20 21 22 23 24 25 26 27 28 29
000
ASUS45 KBOU 261308
RWRCO

WEATHER ROUNDUP FOR COLORADO
NATIONAL WEATHER SERVICE PUEBLO CO
700 AM MDT WED APR 26 2017

NOTE: "FAIR" INDICATES FEW OR NO CLOUDS BELOW 12000 FEET WITH NO
SIGNIFICANT WEATHER AND/OR OBSTRUCTIONS TO VISIBILITY.

COZ001>005-013-030-031-261400-
...NORTHWEST COLORADO...

CITY           SKY/WX    TMP DP  RH WIND       PRES   REMARKS
CRAIG          FLURRIES  33  28  81 NE3       29.91S
HAYDEN         CLOUDY    30  25  80 SE6       29.91S WCI  24
MEEKER         CLOUDY    35  34  96 CALM      29.91S
MOUNT WERNER   NOT AVBL
STEAMBOAT SPGS CLOUDY    31  28  92 E6        29.91R WCI  25
WALDEN           N/A     23  19  86 SE6       29.89R WCI  16
$$

COZ006>008-011-261400-
...WEST CENTRAL VALLEYS...

CITY           SKY/WX    TMP DP  RH WIND       PRES   REMARKS
GRAND JUNCTION CLOUDY    38  37  97 E5        29.92R
MONTROSE       CLOUDY    36  31  82 CALM      29.95R
EAGLE          MOCLDY    28  28 100 CALM      29.94S
RIFLE          CLOUDY    36  33  89 W5        29.93R
DELTA          NOT AVBL
NUCLA          FAIR      32  30  93 E5        29.97S WCI  27
$$

COZ017>023-064>068-261400-
...SOUTHWEST COLORADO...

CITY           SKY/WX    TMP DP  RH WIND       PRES   REMARKS
DURANGO        CLEAR     24  17  74 E8        29.90R WCI  15
CORTEZ         CLEAR     26  23  88 E8        29.93R WCI  18
PAGOSA SPRINGS FAIR      26  24  95 CALM      29.91R
TELLURIDE      CLOUDY    27  24  89 CALM      29.96R
WOLF CREEK PAS CLOUDY    18  10  73 CALM      29.97R
$$

COZ009-010-012-014-032>034-037-058>063-261400-
...CENTRAL COLORADO...

CITY           SKY/WX    TMP DP  RH WIND       PRES   REMARKS
ASPEN          CLOUDY    30  27  88 CALM      29.92R
BUENA VISTA    FAIR      32  18  55 NW8       29.87R WCI  25
COPPER MTN     LGT SNOW  19  14  79 MISG      29.89S
BERTHOUD PASS  CLOUDY    10   0  61 NW30G37   29.85R WCI -12
COTTONWOOD PAS CLOUDY    30  18  59 NW6       29.88R WCI  24
GUNNISON       CLEAR     28  23  81 N6        29.92R WCI  22
KREMMLING      CLOUDY    36  28  75 CALM      29.92R
LEADVILLE      CLOUDY    22  16  78 NW6       29.89R WCI  14
MONARCH PASS   CLOUDY    18  14  86 W10       30.00R WCI   6
SALIDA         FAIR      36  20  52 NW7       29.94R
NIWOT RIDGE    NOT AVBL
SUNLIGHT       LGT SNOW N/A N/A N/A CALM      29.97R
WILKERSON PASS CLEAR     19  10  68 N12G22    29.88S WCI   7
$$

COZ069>075-261400-
...SAN LUIS VALLEY/SANGRE DE CRISTO MOUNTAINS...

CITY           SKY/WX    TMP DP  RH WIND       PRES   REMARKS
ALAMOSA        CLOUDY    31  24  75 N7        29.86R WCI  24
LA VETA PASS   CLOUDY    23  19  86 SW16      29.95S WCI  10
SAGUACHE       NOT AVBL
$$

COZ035-036-038>040-261400-
...NORTHERN COLORADO FRONT RANGE...

CITY           SKY/WX    TMP DP  RH WIND       PRES   REMARKS
DENVER INTL AP PTCLDY    31  26  82 SW9       29.83S WCI  23
DMNS CITY PARK NOT AVBL
AURORA         PTCLDY    29  28  95 S12       29.83F WCI  20
FRONT RANGE AP PTCLDY    30  28  93 SW7       29.83F WCI  23
ERIE MUNI ARPT FAIR      30  28  90 CALM      29.84S
BOULDER MUN AP FAIR      34  30  86 CALM      29.83S
CENTENNIAL     PTCLDY    29  27  92 S5        29.83S WCI  24
BROOMFIELD     PTCLDY    30  28  93 N3        29.83F
LOVELAND       CLEAR     28  27  96 S8        29.84R WCI  20
LONGMONT       FAIR      33  28  82 CALM      29.86S HAZE
$$

COZ041-046-047-076>085-087-088-261400-
...PIKES PEAK/PALMER DIVIDE AND SOUTHERN FOOTHILLS...

CITY           SKY/WX    TMP DP  RH WIND       PRES   REMARKS
COLO. SPRINGS  PTCLDY    34  27  75 CALM      29.83R
A. F. ACADEMY  PTCLDY    28  26  91 N7        29.82R WCI  21
ELLICOTT       NOT AVBL
FALCON         FAIR      30  25  83 N10       29.83R WCI  21
SCHRIEVER AFB  FAIR      32  27  80 N3        29.84R
FORT CARSON    CLEAR     33  30  89 E5        29.83R WCI  28
LIMON          SUNNY     29  27  92 NW15      29.82R WCI  18
MONUMENT HILL  FOG       27  25  93 W3        29.85R VSB<1/4
TRINIDAD       CLOUDY    35  31  85 CALM      29.85R
$$

COZ042>045-048>051-090-091-261400-
...NORTHEAST COLORADO...

CITY           SKY/WX    TMP DP  RH WIND       PRES   REMARKS
GREELEY ARPT   CLEAR     32  27  81 SW5       29.85S WCI  27
AKRON          SUNNY     30  27  88 NW14      29.82R WCI  19
BURLINGTON     NOT AVBL
WRAY           NOT AVBL
STERLING       FAIR      34  30  86 N10       29.82S WCI  26
HOLYOKE        CLOUDY    34  30  86 N14       29.84R WCI  24
FORT MORGAN    FAIR      30  28  90 W5        29.84R WCI  26
$$

COZ086-089-092>099-261400-
...SOUTHEAST COLORADO...

CITY           SKY/WX    TMP DP  RH WIND       PRES   REMARKS
PUEBLO         CLEAR     37  32  82 CALM      29.84R
LA JUNTA       PTCLDY    38  31  76 N6        29.86R
LAMAR          MOSUNNY   37  30  75 N8        29.84R
SPRINGFIELD      N/A     36  34  92 N17       29.82R
$$





USA.gov is the U.S. government's official web portal to all federal, state and local government web resources and services.